This is the latest recevied weather packets stored in our database for station/object AD5L. If no packets are shown the sender has not sent any weather packets the latest 10 day(s).
| Time | Temp. | Humidity | Pressure | Rain* | Wind** | Luminosity | Snow |
|---|---|---|---|---|---|---|---|
| 1777920205 | 26.67° C | 66% | 1012.7 hPa | 0 mm | - | - | - |
| 1777919612 | 26.11° C | 66% | 1012.8 hPa | 0 mm | - | - | - |
| 1777919002 | 26.11° C | 66% | 1012.9 hPa | 0 mm | - | - | - |
| 1777918414 | 26.11° C | 66% | 1013.2 hPa | 0 mm | - | - | - |
| 1777917805 | 26.11° C | 67% | 1013.2 hPa | 0 mm | - | - | - |
| 1777917217 | 25° C | 69% | 1013.5 hPa | 0 mm | - | - | - |
| 1777916609 | 25° C | 68% | 1013.8 hPa | 0 mm | - | - | - |
| 1777916018 | 24.44° C | 71% | 1013.8 hPa | 0 mm | - | - | - |
| 1777915430 | 24.44° C | 71% | 1014.1 hPa | 0 mm | - | - | - |
| 1777914823 | 23.89° C | 72% | 1014.4 hPa | 0 mm | - | - | - |
| 1777914204 | 23.89° C | 71% | 1014.7 hPa | 0 mm | - | - | - |
| 1777913612 | 24.44° C | 70% | 1014.4 hPa | 0 mm | - | - | - |
| 1777913003 | 23.89° C | 70% | 1014.4 hPa | 0 mm | - | - | - |
| 1777912414 | 23.89° C | 70% | 1014.5 hPa | 0 mm | - | - | - |
| 1777911821 | 24.44° C | 69% | 1014.3 hPa | 0 mm | - | - | - |
| 1777911212 | 23.89° C | 70% | 1014.6 hPa | 0 mm | - | - | - |
| 1777910602 | 24.44° C | 69% | 1014.7 hPa | 0 mm | - | - | - |
| 1777910013 | 23.89° C | 69% | 1014.8 hPa | 0 mm | - | - | - |
| 1777909405 | 23.89° C | 71% | 1014.9 hPa | 0 mm | - | - | - |
| 1777908816 | 23.89° C | 70% | 1014.9 hPa | 0 mm | - | - | - |
| 1777908208 | 23.33° C | 72% | 1015 hPa | 0 mm | - | - | - |
| 1777907619 | 22.78° C | 72% | 1015 hPa | 0 mm | - | - | - |
| 1777907009 | 22.78° C | 73% | 1015 hPa | 0 mm | - | - | - |
| 1777906420 | 22.22° C | 74% | 1015.1 hPa | 0 mm | - | - | - |
| 1777905811 | 21.67° C | 74% | 1015.1 hPa | 0 mm | - | - | - |
* Rain latest hour (hover to see other rain measurements)
** Current wind speed in m/s (hover to see current wind gust speed)